STARLINK-5308 (55300 NORAD) Tracking and Keplerian Element Data

This shows tracking and keplerian element data for the satellite.

Feedback or suggestion? Click here.




ElementValue
Catalog55300
NameSTARLINK-5308
Epoch Orbit1739
Epoch Day127.11359984
Epoch Year2023
RAAN126.4433
Inclination69.9981
Eccentricity0.0004396
Argument of Perigee279.8149
Mean Anonmoly80.255
Mean Motion15.69822472
Decay Rate-0.00013212
L11 55300U 23010AH 23127.11359984 -.00013212 00000+0 -10871-3 0 9994
L22 55300 69.9981 126.4433 0004396 279.8149 80.2550 15.69822472 17398



Live tracking and technical data element details for STARLINK-5308 (NORAD 55300). STARLINK-5308 can be tracked NOW for your location showing map with azimuth and elevation plus other details from your city location.







IsCatalogInMostPopularTable: catalog: 55300, numindb: 1
Update: records affected: 1



GetName: 55300 STARLINK-5308

Hit Count: updated at: Mon, 05 Jun 2023 19:56:14 GMT